[[{"header":{"parameterUnit":"m.s-1","parameterCategory":1,"la1":30.2991,"la2":30.254,"lo1":-89.0895,"lo2":-89.0444,"dy":0.0017,"dx":0.0017,"nx":28,"ny":28,"refTime":"2024-04-16T09:00:00:Z","depth":0,"parameterNumber":2,"parameterNumberName":"U-component_of_WINDS"},"data":[0,0,0,0,0,0,0,0,0,0,0,0,0,0,0,0,0,0,0,0,0,0,0,0,0,0,0,0,0,0,0,0,0,0,0,0,0,0,0,0,0,0,0,0,0,0,0,0,0,0,0,0,0,0,0,0,0,0,-0.452,-0.452,0,-0.459,-0.459,-0.4591,-0.4617,-0.4617,-0.4617,-0.4617,-0.4693,-0.4695,-0.4697,0,0,0,0,0,0,0,0,0,0,0,0,0,-0.4413,-0.4415,-0.452,-0.452,-0.4521,-0.459,-0.4591,-0.4591,-0.4617,-0.4617,-0.4617,-0.4617,-0.4692,-0.4695,-0.4697,0,0,0,0,0,0,0,0,0,0,0,0,0,-0.4469,-0.4416,-0.4519,-0.4542,-0.4545,-0.4589,-0.4591,-0.4592,-0.4618,-0.4617,-0.4617,-0.4617,-0.4691,-0.4694,-0.4698,-0.4725,0,0,-0.4708,-0.4709,0,0,0,0,0,0,0,0,-0.4466,-0.4473,-0.4538,-0.4541,-0.4544,-0.4594,-0.4581,-0.4637,-0.4618,-0.459,-0.4617,-0.4616,-0.4661,-0.4666,-0.468,-0.4729,-0.4732,-0.4708,-0.471,-0.4712,-0.4713,0,0,0,0,0,0,0,-0.4462,-0.447,-0.4547,-0.4539,-0.4543,-0.4551,-0.4558,-0.4592,-0.4627,-0.4593,-0.4595,-0.4602,-0.4662,-0.4677,-0.4682,-0.4733,-0.4708,-0.4711,-0.4713,-0.4715,-0.481,-0.481,0,0,0,0,0,0,-0.4454,-0.4467,-0.4545,-0.455,-0.4503,-0.4553,-0.4561,-0.4579,-0.4626,-0.4633,-0.4603,-0.4603,-0.4672,-0.4679,-0.4685,-0.4722,-0.4712,-0.4715,-0.4717,-0.4809,-0.481,-0.481,0,0,0,0,0,0,-0.4451,-0.446,-0.4542,-0.4509,-0.452,-0.4555,-0.4574,-0.458,-0.4595,-0.4634,-0.4641,-0.4611,-0.4672,-0.4681,-0.4715,-0.4725,-0.4716,-0.4719,-0.4809,-0.4809,-0.481,-0.4794,0,0,0,0,0,0,-0.4448,-0.4459,-0.4469,-0.4509,-0.4521,-0.457,-0.4575,-0.4582,-0.46,-0.4602,-0.4644,-0.465,-0.4672,-0.471,-0.4719,-0.4729,-0.4722,-0.4808,-0.4809,-0.481,-0.4794,-0.4794,-0.4794,0,0,0,0,0,-0.4444,-0.4463,-0.4469,-0.4479,-0.4534,-0.457,-0.4578,-0.4601,-0.4601,-0.4612,-0.4637,-0.4649,-0.4722,-0.4713,-0.4723,-0.4735,-0.4808,-0.4809,-0.481,-0.4794,-0.4794,-0.4794,0,0,0,0,0,0,-0.4425,-0.4468,-0.4476,-0.4508,-0.4535,-0.4574,-0.4589,-0.4601,-0.463,-0.463,-0.4659,-0.4668,-0.4701,-0.4722,-0.4711,-0.4765,-0.4766,-0.4769,-0.475,-0.4751,-0.4751,-0.4746,-0.4725,0,0,0,0,0,-0.4424,-0.4448,-0.4485,-0.4509,-0.4522,-0.4553,-0.457,-0.4585,-0.4616,-0.4628,-0.4655,-0.4685,-0.4715,-0.4734,-0.4764,-0.4797,-0.4807,-0.481,-0.481,-0.481,-0.4813,-0.4833,-0.4835,-0.4814,-0.4814,-0.4814,0,0,-0.4423,-0.4449,-0.4463,-0.4506,-0.4529,-0.4555,-0.4563,-0.459,-0.461,-0.4632,-0.4666,-0.4688,-0.4723,-0.4758,-0.4774,-0.4776,-0.4821,-0.4812,-0.4811,-0.4814,-0.4835,-0.4837,-0.4838,-0.4815,-0.4815,-0.4815,0,0,-0.4434,-0.4456,-0.4479,-0.4501,-0.4535,-0.4556,-0.4561,-0.4599,-0.4614,-0.4648,-0.4666,-0.4691,-0.4742,-0.4766,-0.4786,-0.4807,-0.4819,-0.4816,-0.4817,-0.4837,-0.4838,-0.484,-0.4849,-0.4851,-0.4818,-0.4818,-0.4818,0,-0.4429,-0.4467,-0.449,-0.4516,-0.4535,-0.4554,-0.4579,-0.46,-0.4643,-0.4657,-0.4657,-0.4721,-0.4747,-0.4788,-0.4793,-0.4807,-0.4816,-0.4811,-0.4836,-0.4838,-0.484,-0.4848,-0.4851,-0.4817,-0.4817,-0.4817,-0.4817,0,-0.4459,-0.4486,-0.45,-0.4539,-0.456,-0.4585,-0.4613,-0.4632,-0.4646,-0.4667,-0.4702,-0.4733,-0.477,-0.4781,-0.4795,-0.4824,-0.4824,-0.483,-0.4831,-0.4841,-0.4849,-0.4853,-0.4816,-0.4817,-0.4817,-0.4817,0,0,-0.4461,-0.4511,-0.4517,-0.4535,-0.4574,-0.4596,-0.4623,-0.4657,-0.4673,-0.4702,-0.4726,-0.4768,-0.4774,-0.4796,-0.4813,-0.483,-0.4846,-0.4834,-0.4836,-0.4836,-0.4882,-0.4877,-0.4881,-0.4855,-0.4855,-0.4856,-0.4879,0,-0.4478,-0.4524,-0.4546,-0.4584,-0.4609,-0.4629,-0.4652,-0.468,-0.47,-0.4726,-0.4749,-0.4779,-0.4784,-0.4797,-0.4815,-0.484,-0.4856,-0.4839,-0.4879,-0.488,-0.487,-0.4885,-0.4881,-0.4901,-0.4882,-0.4883,-0.4883,0,-0.4504,-0.4531,-0.4571,-0.4608,-0.4619,-0.464,-0.4674,-0.4697,-0.473,-0.4743,-0.4768,-0.4784,-0.4815,-0.4814,-0.4857,-0.4845,-0.4863,-0.4878,-0.4879,-0.4885,-0.4883,-0.4892,-0.4908,-0.4911,-0.4889,-0.4888,-0.4888,0,-0.4502,-0.4549,-0.4579,-0.4594,-0.4637,-0.4652,-0.4671,-0.4702,-0.4722,-0.4752,-0.4765,-0.4798,-0.4817,-0.4844,-0.487,-0.4866,-0.4911,-0.4912,-0.4925,-0.4924,-0.4934,-0.4933,-0.4954,-0.4944,-0.4943,-0.4943,-0.4943,0,-0.4519,-0.4543,-0.4579,-0.4597,-0.4625,-0.4651,-0.4678,-0.4699,-0.4727,-0.4751,-0.4771,-0.4793,-0.4826,-0.4853,-0.4874,-0.4907,-0.4915,-0.4929,-0.4934,-0.4927,-0.4926,-0.494,-0.494,-0.4944,-0.4944,-0.4944,-0.4944,0,-0.4522,-0.4547,-0.4581,-0.4619,-0.4629,-0.4648,-0.4681,-0.4701,-0.4722,-0.4753,-0.4761,-0.4795,-0.4828,-0.4857,-0.4901,-0.4915,-0.495,-0.4956,-0.4938,-0.4941,-0.4953,-0.4952,-0.4985,-0.4991,-0.4975,-0.4975,-0.4975,0,-0.4532,-0.4551,-0.459,-0.4607,-0.4625,-0.4652,-0.4672,-0.4698,-0.4718,-0.4756,-0.4772,-0.4806,-0.4835,-0.4887,-0.4917,-0.4951,-0.4959,-0.4968,-0.4964,-0.4957,-0.496,-0.4959,-0.4962,-0.4968,-0.4968,-0.4968,-0.4968,0,-0.4547,-0.4558,-0.4585,-0.4616,-0.4639,-0.4665,-0.4692,-0.4705,-0.4736,-0.4758,-0.4791,-0.4814,-0.4858,-0.4893,-0.493,-0.4952,-0.4966,-0.4969,-0.4974,-0.4968,-0.4958,-0.4964,-0.494,-0.4969,-0.4968,-0.4968,-0.4968,-0.4968,-0.4555,-0.4573,-0.4603,-0.4632,-0.4655,-0.468,-0.47,-0.4723,-0.4751,-0.4788,-0.4802,-0.4837,-0.487,-0.4921,-0.4943,-0.4971,-0.4974,-0.4981,-0.4983,-0.4984,-0.4984,-0.4952,-0.4978,-0.4978,-0.4978,-0.4978,-0.4978,0,-0.4572,-0.4592,-0.4619,-0.4655,-0.4679,-0.4688,-0.4718,-0.4738,-0.4768,-0.4796,-0.4824,-0.4863,-0.4897,-0.4928,-0.4964,-0.4981,-0.4988,-0.499,-0.4989,-0.4994,-0.4979,-0.4972,-0.4983,-0.4983,-0.4983,-0.4983,-0.4983,-0.4983,-0.4584,-0.4614,-0.4629,-0.4672,-0.4693,-0.4725,-0.4742,-0.4766,-0.4789,-0.4831,-0.4858,-0.4878,-0.4909,-0.4947,-0.4979,-0.4987,-0.5,-0.5,-0.501,-0.4996,-0.4995,-0.4994,-0.4987,-0.5002,-0.5002,-0.5023,-0.5023,-0.5023]},{"header":{"parameterUnit":"m.s-1","parameterCategory":1,"la1":30.2991,"la2":30.254,"lo1":-89.0895,"lo2":-89.0444,"dy":0.0017,"dx":0.0017,"nx":28,"ny":28,"refTime":"2024-04-16T09:00:00:Z","depth":0,"parameterNumber":3,"parameterNumberName":"V-component_of_WINDS"},"data":[0,0,0,0,0,0,0,0,0,0,0,0,0,0,0,0,0,0,0,0,0,0,0,0,0,0,0,0,0,0,0,0,0,0,0,0,0,0,0,0,0,0,0,0,0,0,0,0,0,0,0,0,0,0,0,0,0,0,4.5958,4.5958,0,4.5962,4.5962,4.5962,4.5902,4.59,4.5899,4.5897,4.5901,4.5902,4.5904,0,0,0,0,0,0,0,0,0,0,0,0,0,4.5897,4.5899,4.5958,4.5958,4.5959,4.5962,4.5962,4.5962,4.5902,4.59,4.5898,4.5897,4.59,4.5902,4.5904,0,0,0,0,0,0,0,0,0,0,0,0,0,4.5915,4.5899,4.5958,4.5929,4.5926,4.5962,4.5962,4.5962,4.5903,4.59,4.5898,4.5896,4.5899,4.5902,4.5904,4.5968,0,0,4.5912,4.5913,0,0,0,0,0,0,0,0,4.5914,4.5917,4.5933,4.5931,4.5928,4.5929,4.5942,4.5964,4.5903,4.5912,4.5897,4.5894,4.5912,4.5913,4.5919,4.5968,4.5968,4.5912,4.5913,4.5914,4.5915,0,0,0,0,0,0,0,4.5913,4.5917,4.596,4.5934,4.5931,4.5915,4.5915,4.5946,4.5926,4.5911,4.5906,4.5908,4.591,4.5917,4.5919,4.5968,4.5912,4.5914,4.5915,4.5916,4.607,4.6072,0,0,0,0,0,0,4.5916,4.5916,4.596,4.596,4.5915,4.5918,4.5918,4.5931,4.5925,4.5922,4.591,4.5905,4.5914,4.5916,4.5919,4.5993,4.5914,4.5916,4.5918,4.6067,4.607,4.6073,0,0,0,0,0,0,4.5915,4.592,4.596,4.5937,4.5941,4.5922,4.5937,4.5933,4.594,4.5924,4.592,4.5921,4.5912,4.5915,4.5956,4.5992,4.5918,4.592,4.6064,4.6068,4.6072,4.6143,0,0,0,0,0,0,4.5913,4.592,4.5945,4.5938,4.5942,4.5998,4.594,4.5935,4.5944,4.5938,4.5934,4.5931,4.5911,4.5953,4.5959,4.5994,4.5922,4.6061,4.6066,4.607,4.6137,4.6148,4.6158,0,0,0,0,0,4.5911,4.5964,4.5946,4.5952,4.5972,4.6,4.6002,4.5978,4.5947,4.5971,4.5962,4.5931,4.5988,4.5958,4.5964,4.6001,4.6058,4.6064,4.607,4.6132,4.6146,4.6158,0,0,0,0,0,0,4.5976,4.5963,4.5943,4.5995,4.5999,4.599,4.6019,4.5994,4.6007,4.6,4.597,4.5969,4.6015,4.6012,4.5979,4.6062,4.6017,4.6025,4.6063,4.6076,4.6086,4.6086,4.5924,0,0,0,0,0,4.5996,4.602,4.6007,4.6055,4.6058,4.6039,4.6049,4.6031,4.6033,4.6035,4.6028,4.6031,4.605,4.6062,4.6079,4.6136,4.6134,4.6164,4.6175,4.6184,4.6191,4.6221,4.6234,4.6092,4.6092,4.6092,0,0,4.6039,4.6034,4.6051,4.6068,4.6068,4.6093,4.604,4.6069,4.6087,4.6039,4.6077,4.6072,4.6074,4.6123,4.6145,4.6122,4.6229,4.6191,4.6199,4.6201,4.6228,4.6241,4.6253,4.6096,4.6096,4.6095,0,0,4.6128,4.6128,4.6167,4.6169,4.6171,4.6158,4.6167,4.6161,4.6156,4.6194,4.6159,4.6179,4.6212,4.6215,4.622,4.6311,4.6283,4.6317,4.6373,4.6402,4.6414,4.6423,4.6456,4.6467,4.6324,4.6324,4.6324,0,4.618,4.6217,4.6191,4.6221,4.623,4.6188,4.6227,4.623,4.6237,4.6244,4.6218,4.6258,4.6256,4.6305,4.6328,4.6334,4.6343,4.6317,4.6414,4.6424,4.6432,4.6463,4.6475,4.6328,4.6328,4.6327,4.6327,0,4.6281,4.6306,4.6338,4.6346,4.6358,4.6393,4.6372,4.6386,4.6367,4.6356,4.6395,4.6391,4.6406,4.6416,4.6397,4.6463,4.6449,4.6419,4.6374,4.645,4.6478,4.649,4.6334,4.6332,4.6331,4.633,0,0,4.6412,4.6405,4.6417,4.642,4.6418,4.6437,4.647,4.6485,4.6498,4.6504,4.6531,4.656,4.6532,4.6539,4.6519,4.6545,4.6617,4.6512,4.6512,4.6532,4.6689,4.6712,4.6726,4.6599,4.6601,4.6602,4.6689,0,4.6499,4.6555,4.6532,4.659,4.6613,4.6574,4.6602,4.6605,4.6595,4.6613,4.6603,4.6624,4.6586,4.659,4.6613,4.6604,4.6648,4.6597,4.6623,4.6624,4.6624,4.674,4.6764,4.6846,4.67,4.6702,4.6703,0,4.6608,4.6619,4.668,4.6674,4.6683,4.6709,4.672,4.6738,4.674,4.6731,4.6738,4.6713,4.6745,4.67,4.6743,4.6708,4.6717,4.6714,4.6717,4.6718,4.6668,4.6745,4.6872,4.6884,4.672,4.6719,4.6717,0,4.6697,4.6727,4.6767,4.6771,4.6765,4.6785,4.6783,4.6782,4.6792,4.6802,4.6808,4.6822,4.6829,4.684,4.6819,4.6788,4.6865,4.6818,4.6859,4.6859,4.6877,4.6876,4.7007,4.6883,4.6883,4.6883,4.6882,0,4.6797,4.6836,4.6807,4.6832,4.6874,4.6847,4.6889,4.6883,4.6882,4.6905,4.6871,4.6893,4.6864,4.6883,4.6867,4.6905,4.6909,4.6902,4.6898,4.6906,4.6906,4.6911,4.6905,4.6886,4.6885,4.6884,4.6884,0,4.6904,4.6887,4.6927,4.6919,4.6918,4.6949,4.6941,4.6963,4.6952,4.6981,4.6986,4.6968,4.6988,4.6969,4.6988,4.6977,4.7028,4.7015,4.7028,4.7024,4.7066,4.7062,4.7204,4.7222,4.7087,4.7088,4.7089,0,4.6969,4.6998,4.6993,4.7005,4.7006,4.7027,4.7037,4.7011,4.7023,4.7027,4.7049,4.7067,4.7079,4.7114,4.7102,4.7117,4.7104,4.7153,4.7106,4.7113,4.7105,4.7104,4.7106,4.7163,4.7164,4.7165,4.7166,0,4.7087,4.7076,4.7092,4.7105,4.7119,4.7128,4.7134,4.7146,4.712,4.7135,4.7155,4.7165,4.7185,4.7203,4.7214,4.7212,4.7185,4.7181,4.7191,4.72,4.7206,4.7203,4.7054,4.7178,4.7177,4.7176,4.7176,4.7175,4.7175,4.7198,4.7198,4.7217,4.7219,4.7225,4.7246,4.7237,4.7254,4.7268,4.7251,4.7277,4.7277,4.7289,4.729,4.731,4.7289,4.7304,4.7308,4.7312,4.7318,4.7203,4.7311,4.7311,4.7311,4.731,4.731,0,4.729,4.7288,4.7306,4.7315,4.733,4.7303,4.7309,4.7323,4.7346,4.7348,4.7362,4.7385,4.7402,4.7392,4.7407,4.7424,4.7412,4.7429,4.7428,4.7428,4.7335,4.7325,4.7438,4.7438,4.7438,4.7438,4.7438,4.7438,4.7352,4.7391,4.738,4.7419,4.7416,4.7441,4.7446,4.7452,4.7454,4.7482,4.7496,4.7489,4.7487,4.7501,4.7515,4.7512,4.7519,4.754,4.7532,4.7447,4.7434,4.7422,4.7412,4.7542,4.7542,4.7623,4.7624,4.7624]}]]